Location: Sankt Anna
(58.3452°N, 16.7040°E)
Time: 03:57:19
(UTC+02:00)

DX 1 - Pass Details

Date: 29 May 2019
Orbit: 620 x 631 km, 98.4° (Epoch: 24 June)

Event Time Altitude Azimuth Distance (km) Brightness Sun altitude
Rises 02:38:30 0° 134° (SE) 2,912 ? -7.0°
Reaches altitude 10° 02:40:48 10° 126° (SE) 2,010 ? -6.9°
Maximum altitude 02:44:47 36° 60° (ENE) 1,015 ? -6.7°
Drops below altitude 10° 02:48:48 10° 355° (N) 2,027 ? -6.4°
Sets 02:51:08 0° 346° (NNW) 2,940 ? -6.3°
